Flag for Germany Weather past 2 weeks in Wertheim, Baden-Württemberg, Germany

Now
63 °F

Light rain. Overcast.


Feels Like: 63 °F
Forecast: 56 / 75 °F
Wind: 2 mph from South

Location: Wuerzburg

Current Time: Sep 18, 2014 at 11:52:34 AM

Latest Report: Sep 18, 2014 at 11:00 AM


Visibility: 14 mi

Pressure: 29.92 "Hg

Humidity: 80%

Dew point: 57 °F

Location of WertheimLocation

Historic Weather in Wertheim — Graph

°F

Wertheim temperature yesterday

Maximum temperature yesterday: 73 °F (at 5:00 PM)
Minimum temperature yesterday: 53 °F (at 6:00 AM)
Average temperature yesterday: 62 °F

Past Weeks' High & Low Weather Summary

 TemperatureHumidityPressure
High75 °F (Sep 6, 4:00 PM)100% (Sep 6, 9:00 AM)30.19 "Hg (Sep 6, 9:00 AM)
Low48 °F (Sep 11, 6:00 AM)52% (Sep 8, 5:00 PM)29.86 "Hg (Sep 6, 4:00 PM)
Average62 °F85%30.02 "Hg
* Reported Sep 3 10:00 AM — Sep 18 10:00 AM, Wertheim, Weather by CustomWeather, © 2014

Note: Actual official high and low records may vary slightly from our data, if they occured in-between our weather recording intervals... More about our weather records

Advertising

Wertheim weather history for previous 24 hours

 ConditionsComfort  
Time TempWeatherWind HumidityBarometerVisibility
10:00 AM
Sep 18
62 °FOvercast.1 mph82%29.91 "Hg9 mi
9:00 AM57 °FOvercast.1 mph94%29.92 "Hg6 mi
8:00 AM56 °FOvercast.2 mph97%29.91 "Hg5 mi
7:00 AM55 °FOvercast.2 mph97%29.91 "Hg6 mi
6:00 AM55 °FPassing clouds.1 mph98%29.90 "Hg5 mi
5:00 AM55 °FPassing clouds.2 mph98%29.90 "Hg6 mi
4:00 AM56 °FPassing clouds.1 mph97%29.91 "Hg7 mi
3:00 AM56 °FPassing clouds.1 mph96%29.90 "Hg11 mi
2:00 AM58 °FClear.1 mph94%29.90 "Hg11 mi
1:00 AM58 °FClear.1 mph94%29.91 "Hg12 mi
12:00 AM59 °FClear.1 mph91%29.91 "Hg16 mi
11:00 PM
Sep 17
61 °FPassing clouds.2 mph87%29.90 "Hg19 mi
10:00 PM63 °FPassing clouds.1 mph81%29.90 "Hg19 mi
9:00 PM65 °FPassing clouds.1 mph76%29.90 "Hg25 mi
8:00 PM66 °FPassing clouds.3 mph71%29.89 "Hg25 mi
7:00 PM69 °FPassing clouds.3 mph66%29.88 "Hg25 mi
6:00 PM72 °FPassing clouds.3 mph61%29.88 "Hg25 mi
5:00 PM73 °FPassing clouds.2 mph59%29.88 "Hg25 mi
4:00 PM73 °FPassing clouds.3 mph59%29.89 "Hg25 mi
3:00 PM72 °FPassing clouds.3 mph63%29.91 "Hg25 mi
2:00 PM70 °FPassing clouds.5 mph66%29.92 "Hg25 mi
1:00 PM68 °FScattered clouds.3 mph72%29.93 "Hg22 mi
12:00 PM68 °FPassing clouds.3 mph74%29.95 "Hg25 mi
11:00 AM64 °FPassing clouds.6 mph80%29.95 "Hg19 mi
Weather by CustomWeather, © 2014

See weather overviewHow to use our weather pages